Weather Roundup
Issued by NWS Chicago, IL

Home | Current Version | Previous Version | Text Only | Print | Product List | Glossary Off
Versions: 1 2 3 4 5 6 7 8 9 10 11 12 13 14 15 16 17 18 19 20 21 22 23 24 25 26 27 28 29 30 31 32 33 34 35 36 37 38 39 40 41 42 43 44 45 46 47 48 49 50

000
NZUS59 KLOT 271613
HRRLOT

CHICAGO AREA WEATHER ROUNDUP
NATIONAL WEATHER SERVICE CHICAGO/ROMEOVILLE IL
1100 AM CDT THU AUG 27 2015

NOTE: "FAIR" INDICATES FEW OR NO CLOUDS BELOW 12,000 FEET WITH NO
SIGNIFICANT WEATHER AND/OR OBSTRUCTIONS TO VISIBILITY.

* THESE STATIONS ARE NOT UNDER NWS QUALITY CONTROL. THEY ALSO MAY NOT
  REPORT WEATHER SUCH AS PRECIPITATION OR FOG.

ILZ005-006-012>014-019>023-271700-
NORTHEAST ILLINOIS

CITY           SKY/WX    TMP DP  RH WIND       PRES   REMARKS
OHARE          PTSUNNY   67  52  58 VRB6      30.19F
MIDWAY         PTSUNNY   68  52  56 S6        30.19F
AURORA         PTSUNNY   68  56  65 SE6       30.20F
LANSING*       CLOUDY    65  53  65 CALM      30.20F
JOLIET*        MOSUNNY   69  55  62 E6        30.20F
WAUKEGAN       SUNNY     68  54  60 SE9       30.19S
DUPAGE AIRPORT PTSUNNY   66  53  63 VRB5      30.19F
WHEELING         N/A    N/A N/A N/A MISG      30.20F
KANKAKEE*      CLOUDY    67  56  69 E6        30.20F
MORRIS*        PTSUNNY   65  55  70 SE6       30.20F
LEWIS AIRPORT* PTSUNNY   67  53  61 SE6       30.19F
NORTHERLY IS     N/A     64  53  67 NE2         N/A
$$

WIZ051-052-058>065-066-070>072-271700-
SOUTHEAST WISCONSIN

CITY           SKY/WX    TMP DP  RH WIND       PRES   REMARKS
MILWAUKEE      MOSUNNY   68  55  63 SE9       30.19S
KENOSHA*       MOSUNNY   69  54  58 S8        30.20S
RACINE*        SUNNY     67  52  58 S10       30.22R
BURLINGTON     SUNNY     67  54  61 SE3       30.19S
WAUKESHA       MOSUNNY   64  55  72 CALM      30.20S
WEST BEND      SUNNY     68  55  64 SW3       30.18F
$$

INZ001>003-010>013-019-020-271700-
NORTHWEST INDIANA

CITY           SKY/WX    TMP DP  RH WIND       PRES   REMARKS
GARY*          CLOUDY    66  52  59 CALM      30.20F
MICHIGAN CITY* NOT AVBL
RENSSELAER*    NOT AVBL
VALPARAISO     MOSUNNY   68  55  63 E7        30.20F
$$

LMZ740>746-271700-
SOUTHERN LAKE MICHIGAN

STATION/POSITION TIME  SKY/WX   TEMP WIND        PRES    VSBY
                                AIR  DIR/SP/G
                 (UTC)          (F)  (DEG/KT/KT) (MB)    (MI)
HARRISON CRIB    1500            62   60/  3/  4   N/A
BURNHAM HARBOR   1600            65   50/  2/  3   N/A
CALUMET HARBOR   1500            64   70/  2/  3   N/A
BURNS HARBOR     1500            64  180/  6/  8 1023.4F
MICHIGAN CITY    1500            62  110/  7/  9   N/A
$$

ABBREVIATIONS USED IN REMARKS
   TC - TEMPERATURE IN CELSIUS
  WCI - WIND CHILL INDEX
   HX - HEAT INDEX
  VSB - VISIBILITY
$$


USA.gov is the U.S. government's official web portal to all federal, state and local government web resources and services.